Theta_e
331 328 330 334 333 330 330 330 331 334 335 336 340 343 342 341 343 345 346 347 346 347 347 347 348 348 349 350 350 351 348 343
331 329 330 332 331 331 332 334 336 335 335 334 337 341 341 342 344 346 347 347 348 347 346 347 348 348 349 350 350 350 351 350
333 332 333 331 331 331 331 333 334 334 334 336 338 341 342 342 342 343 344 346 348 350 347 347 348 348 348 350 350 351 350 350
333 334 333 335 333 333 333 336 336 334 333 336 339 340 341 341 341 341 340 345 346 350 349 348 348 348 348 349 350 350 351 351
333 332 333 333 333 333 332 332 334 335 336 338 341 341 341 340 340 341 341 346 344 347 350 349 349 348 348 348 349 350 351 351
333 333 331 333 333 332 331 333 333 333 333 337 338 342 342 342 341 338 343 345 347 342 340 341 347 345 344 350 350 349 350 351
331 330 329 329 329 331 333 332 332 332 333 332 336 337 340 342 339 341 341 343 344 346 343 339 340 343 343 347 352 348 348 350
331 329 328 327 327 328 330 330 331 331 331 331 336 338 340 341 341 340 340 341 342 343 345 341 341 345 347 345 345 352 348 349
331 329 328 328 328 329 329 330 330 330 331 336 339 341 340 339 339 339 339 341 341 344 344 346 344 342 343 344 346 348 350 352
329 330 330 328 328 328 328 328 329 330 333 337 337 338 338 337 336 339 340 340 342 343 343 344 341 339 337 336 339 344 347 349
330 331 329 328 327 327 328 328 328 329 333 336 337 337 340 338 337 337 339 341 341 341 342 343 344 342 340 341 341 340 343 344
329 330 331 329 327 327 328 331 328 330 336 338 338 338 334 336 336 336 338 339 340 340 341 341 343 341 340 342 344 341 342 341
330 329 329 328 327 330 333 335 333 332 336 338 338 336 334 335 336 336 338 339 339 338 339 339 339 340 340 342 342 343 340 340
330 330 329 326 332 330 333 334 336 336 337 338 338 335 335 335 335 336 338 338 337 337 337 337 335 336 338 339 343 341 340 337
328 329 331 327 328 330 329 332 335 334 337 338 334 334 334 334 335 337 338 338 336 336 337 337 331 335 337 339 339 341 339 337
330 327 328 328 331 332 330 329 332 333 336 336 333 330 331 332 335 337 338 338 336 336 336 336 333 335 336 337 339 341 339 338
329 330 329 328 329 330 330 332 332 333 333 332 329 330 331 334 336 336 338 338 336 336 335 335 334 334 334 335 338 339 339 339
329 328 329 328 329 331 331 331 331 331 333 335 335 335 335 335 338 338 339 338 337 336 335 334 334 332 332 334 336 338 339 338
327 327 329 329 330 330 331 331 331 331 332 333 333 332 334 336 338 338 339 338 337 336 335 334 333 333 331 333 334 334 336 336
Wind_Speed
6 4 9 8 10 6 8 5 8 3 2 10 6 7 6 2 1 1 1 3 8 16 18 20 21 22 22 21 20 21 20 20
7 7 5 9 3 7 7 4 5 6 4 5 2 4 5 1 1 0 1 1 3 8 16 20 20 21 20 20 20 20 19 18
9 9 7 7 10 8 8 5 8 6 2 6 1 4 4 4 3 3 2 4 5 4 11 15 18 20 20 19 19 19 19 20
5 6 1 3 9 7 8 6 3 7 8 6 3 3 3 6 4 1 4 4 4 2 6 11 13 15 18 18 19 19 19 19
10 10 7 8 9 9 9 8 12 9 3 7 6 6 6 5 3 2 2 2 3 4 2 3 6 10 12 16 19 19 19 20
9 2 2 7 10 12 13 10 7 9 1 10 7 9 9 8 4 2 1 0 1 3 1 2 5 11 14 13 16 17 18 18
12 5 5 10 9 12 14 13 9 2 4 2 3 4 8 10 8 3 2 1 2 2 6 5 5 8 11 11 12 16 20 18
13 7 8 10 11 11 14 14 8 13 10 6 7 5 9 11 8 6 4 3 4 4 4 5 7 6 2 6 9 10 15 18
14 10 9 13 14 13 13 12 14 14 10 8 8 11 12 10 8 6 3 2 4 4 4 4 4 4 4 3 3 5 9 13
12 7 15 12 3 6 12 14 13 12 2 8 10 13 12 8 7 5 3 1 1 2 3 3 4 4 4 7 8 8 6 9
11 12 10 6 7 8 11 15 14 16 7 10 13 14 9 9 7 4 3 3 2 0 2 4 4 6 5 4 6 10 11 12
9 15 17 10 2 6 6 13 18 12 14 15 17 11 8 12 8 5 4 3 2 0 1 2 5 7 7 7 7 7 7 11
14 10 11 3 6 7 9 3 4 14 16 18 13 4 18 13 9 7 6 4 2 1 2 4 4 6 8 9 9 8 6 5
16 14 15 10 10 11 3 5 9 12 14 15 11 13 13 11 9 8 6 4 1 1 2 3 5 6 6 8 10 8 5 3
7 12 5 18 17 16 7 7 10 12 14 16 15 13 12 11 9 7 6 4 3 1 2 4 6 6 5 7 9 8 6 3
6 7 5 7 12 11 11 9 9 9 13 14 13 11 10 8 9 8 7 6 4 2 3 4 5 4 5 6 7 8 9 7
13 15 5 6 16 14 12 10 9 8 10 11 9 8 8 9 10 9 10 9 7 5 3 3 4 5 5 6 7 9 12 10
13 17 14 12 16 10 13 11 10 9 8 6 8 8 9 9 10 11 12 10 9 7 4 3 3 3 5 6 5 4 8 11
7 11 8 10 14 12 11 10 7 6 6 6 4 5 8 9 9 11 12 12 11 9 7 4 3 3 5 6 6 7 6 8
Wind_Direction
204 216 262 158 233 0 291 223 265 149 190 224 177 196 197 233 234 277 299 266 238 235 221 217 212 212 208 206 211 210 215 221
154 178 177 280 108 214 203 252 250 137 271 291 203 208 193 196 128 125 263 338 320 248 227 219 218 215 216 213 216 215 211 217
180 213 181 175 214 234 305 312 307 289 329 65 334 172 149 121 87 68 9 305 315 290 217 213 217 213 217 219 216 216 217 218
194 111 301 272 283 251 250 190 214 303 293 87 144 161 161 145 146 127 17 6 356 15 192 204 207 217 217 221 221 221 222 221
191 179 189 228 205 247 265 291 271 285 107 116 161 196 199 198 199 223 283 19 53 60 143 180 201 222 224 224 229 228 226 225
238 10 17 200 220 228 243 246 247 229 294 157 185 200 211 213 216 200 183 236 73 327 356 250 241 240 240 244 231 222 225 225
255 286 259 278 267 213 229 253 267 279 230 281 98 202 202 209 195 202 197 244 277 297 290 291 274 250 250 246 239 235 222 224
241 218 241 250 243 229 228 249 246 272 267 300 131 166 176 186 202 212 218 269 294 299 292 277 256 195 164 264 234 232 227 222
240 202 231 243 239 229 236 229 243 254 260 136 164 162 170 176 188 196 211 273 301 297 300 271 231 255 240 269 237 224 227 220
253 169 230 248 64 269 257 253 248 250 216 201 184 159 158 165 165 170 181 231 293 292 294 289 230 235 259 294 285 248 213 220
243 225 236 207 209 231 243 259 250 241 181 188 166 156 159 164 160 157 159 158 144 339 258 239 250 248 276 297 300 249 234 231
200 242 239 244 202 203 271 265 246 227 173 176 171 196 146 164 158 152 146 143 131 18 321 283 258 256 251 259 275 287 249 231
215 230 241 126 157 171 223 38 140 187 175 175 189 56 134 151 154 149 147 145 142 50 318 295 285 268 257 249 257 263 266 245
232 217 234 147 163 212 51 95 147 161 165 169 150 140 144 154 154 152 149 159 157 315 308 315 310 307 281 243 231 247 234 261
257 225 135 182 216 212 231 177 169 164 167 168 162 161 161 160 163 169 172 178 197 249 299 314 320 315 287 223 234 212 208 209
290 199 204 213 211 206 201 192 188 181 173 174 175 170 167 175 184 187 191 198 204 233 297 319 311 291 286 250 226 212 215 228
272 276 269 231 218 206 187 170 170 168 174 186 194 195 200 197 197 202 201 203 206 218 255 303 310 286 270 268 233 236 244 248
230 276 236 234 207 202 187 172 171 174 176 187 202 217 215 216 211 206 206 206 207 213 220 265 298 274 270 265 244 236 190 183
263 304 247 203 200 188 165 166 162 172 179 196 210 206 211 212 210 206 204 208 213 212 212 226 265 260 255 244 236 232 213 185